Location: Unspecified
(0.0000°N, 0.0000°E)
Time: 23:35:42
(UTC+00:00)

STARLINK-31962 - Visible Passes

Search period start: 20 June 2025 00:00
Search period end: 30 June 2025 00:00
Orbit: 482 x 484 km, 43.0° (Epoch: 20 June)

Date Brightness Start Highest point End Pass type
(mag) Time Alt. Az. Time Alt. Az. Time Alt. Az.
20 Jun ? 19:29:08 10° WNW 19:32:21 26° SW 19:33:20 23° SSW visible
21 Jun ? 05:37:07 10° S 05:39:43 18° SE 05:42:19 10° E visible
21 Jun ? 19:01:21 10° WNW 19:04:37 28° SW 19:07:22 13° S visible
22 Jun ? 05:09:28 10° S 05:11:59 17° SE 05:14:30 10° E visible
22 Jun ? 18:33:34 10° WNW 18:36:52 29° SW 18:40:12 10° SSE visible
23 Jun ? 04:42:06 11° S 04:44:14 16° SE 04:46:39 10° E visible
24 Jun ? 04:16:07 15° SE 04:16:29 16° SE 04:18:49 10° E visible
25 Jun ? 03:50:07 13° ESE 03:50:07 13° ESE 03:50:56 10° E visible
25 Jun ? 05:24:23 11° WSW 05:27:32 32° NW 05:30:56 10° NNE visible
26 Jun ? 04:58:21 25° W 04:59:46 34° NW 05:03:12 10° NNE visible
27 Jun ? 04:32:16 35° NW 04:32:16 35° NW 04:35:28 10° NNE visible
28 Jun ? 04:06:08 22° N 04:06:08 22° N 04:07:43 10° NNE visible
29 Jun ? 03:39:56 10° NNE 03:39:56 10° NNE 03:39:58 10° NNE visible
